This demonstration page uses our WeatherBlox Daily Observations layout. Learn more.

Left ArrowRight Arrow

Hourly Observations for July 11, 2017

Temp ( °F °C ) Dew Point ( °F °C ) Humidity (%) Winds ( mph kmh ) Pressure ( in mb ) Visibility ( mi km ) Precip ( " mm )
12:53 am 00:53 Clear 82 27.8 56 13.3 41 41 Calm 29.77 1008 10 16 0.00 0.00
1:53 am 01:53 Clear 77 25 57 13.9 50 50 Calm 29.78 1008 10 16 0.00 0.00
2:53 am 02:53 Clear 75 23.9 57 13.9 54 54 Calm 29.78 1009 10 16 0.00 0.00
3:53 am 03:53 Clear 74 23.3 57 13.9 56 56 Calm 29.79 1009 10 16 0.00 0.00
4:53 am 04:53 Clear 72 22.2 57 13.9 59 59 Calm 29.80 1009 10 16 0.00 0.00
5:53 am 05:53 Sunny 71 21.7 57 13.9 61 61 Calm 29.81 1010 10 16 0.00 0.00
6:53 am 06:53 Sunny 74 23.3 56 13.3 54 54 Calm 29.82 1010 10 16 0.00 0.00
7:53 am 07:53 Sunny 78 25.6 55 12.8 45 45 E 3 6 29.83 1010 10 16 0.00 0.00
8:53 am 08:53 Sunny 82 27.8 55 12.8 40 40 Calm 29.83 1010 10 16 0.00 0.00
9:53 am 09:53 Sunny 86 30 54 12.2 33 33 WSW 3 6 29.83 1010 10 16 0.00 0.00
10:53 am 10:53 Sunny 90 32.2 53 11.7 28 28 SW 3 6 29.82 1010 10 16 0.00 0.00
11:53 am 11:53 Sunny 92 33.3 55 12.8 29 29 Calm 29.81 1009 10 16 0.00 0.00
12:53 pm 12:53 Sunny 96 35.6 45 7.2 17 17 undefined N/A 29.79 1009 10 16 0.00 0.00
1:53 pm 13:53 Sunny 98 36.7 44 6.7 16 16 SW 8 13 29.79 1009 10 16 0.00 0.00
2:53 pm 14:53 Sunny 98 36.7 38 3.3 12 12 S 12 19 29.78 1009 10 16 0.00 0.00
2:57 pm 14:57 Sunny N/A N/A N/A SSE 8 13 N/A 10 16 0.00 0.00
3:53 pm 15:53 Sunny 99 37.2 36 2.2 11 11 SSW 10 17 29.78 1008 10 16 0.00 0.00
4:53 pm 16:53 Sunny 100 37.8 23 -5 6 6 S 13 20 29.76 1008 10 16 0.00 0.00
5:53 pm 17:53 Sunny 98 36.7 27 -2.8 8 8 S 13 20 29.76 1008 10 16 0.00 0.00
6:53 pm 18:53 Sunny 97 36.1 33 0.6 10 10 SSW 12 19 29.75 1008 10 16 0.00 0.00
7:53 pm 19:53 Sunny 94 34.4 36 2.2 13 13 SSW 8 13 29.76 1008 10 16 0.00 0.00
8:53 pm 20:53 Clear 91 32.8 42 5.6 18 18 SSW 5 7 29.77 1008 10 16 0.00 0.00
9:53 pm 21:53 Clear 84 28.9 47 8.3 27 27 NE 3 6 29.79 1009 10 16 0.00 0.00
10:53 pm 22:53 Clear 80 26.7 50 10 35 35 Calm 29.81 1010 10 16 0.00 0.00
11:53 pm 23:53 Clear 79 26.1 51 10.6 38 38 Calm 29.82 1010 10 16 0.00 0.00

Powered by AerisWeather